This is the latest recevied weather packets stored in our database for station/object F5MAP-5. If no packets are shown the sender has not sent any weather packets the latest 10 day(s).
| Time | Temp. | Humidity | Pressure | Rain* | Wind** | Luminosity | Snow |
|---|---|---|---|---|---|---|---|
| 1777800131 | 20.56° C | 51% | 1014.6 hPa | 0 mm | - | 378 W/m² | - |
| 1777799531 | 20.56° C | 52% | 1014.2 hPa | 0 mm | - | 207 W/m² | - |
| 1777798931 | 20.56° C | 51% | 1014.5 hPa | 0 mm | - | 211 W/m² | - |
| 1777798331 | 20.56° C | 50% | 1014.4 hPa | 0 mm | - | 232 W/m² | - |
| 1777797731 | 20.56° C | 52% | 1014.5 hPa | 0 mm | - | 271 W/m² | - |
| 1777797131 | 20.56° C | 52% | 1014.6 hPa | 0 mm | - | 253 W/m² | - |
| 1777796531 | 20° C | 51% | 1014.8 hPa | 0 mm | - | 227 W/m² | - |
| 1777795931 | 20° C | 51% | 1014.7 hPa | 0 mm | - | 243 W/m² | - |
| 1777795331 | 20° C | 52% | 1015 hPa | 0 mm | - | 383 W/m² | - |
| 1777794731 | 20° C | 52% | 1015 hPa | 0 mm | - | 246 W/m² | - |
| 1777794131 | 19.44° C | 54% | 1015 hPa | 0 mm | - | 394 W/m² | - |
| 1777793531 | 18.89° C | 54% | 1015 hPa | 0 mm | - | 253 W/m² | - |
| 1777792931 | 18.33° C | 59% | 1015.1 hPa | 0 mm | - | 346 W/m² | - |
| 1777792330 | 17.78° C | 62% | 1015.2 hPa | 0 mm | - | 223 W/m² | - |
| 1777791731 | 17.22° C | 64% | 1015.2 hPa | 0 mm | - | 156 W/m² | - |
| 1777791131 | 16.67° C | 66% | 1015.2 hPa | 0 mm | - | 162 W/m² | - |
| 1777790530 | 16.11° C | 68% | 1015.3 hPa | 0 mm | - | 120 W/m² | - |
| 1777789931 | 15.56° C | 69% | 1015.3 hPa | 0 mm | - | 120 W/m² | - |
| 1777789330 | 15.56° C | 72% | 1015.2 hPa | 0 mm | - | 137 W/m² | - |
| 1777788731 | 15° C | 72% | 1015.4 hPa | 0 mm | - | 125 W/m² | - |
| 1777788130 | 14.44° C | 73% | 1015.3 hPa | 0 mm | - | 128 W/m² | - |
| 1777787532 | 14.44° C | 72% | 1015.3 hPa | 0 mm | - | 120 W/m² | - |
| 1777786936 | 14.44° C | 72% | 1015.3 hPa | 0 mm | - | 77 W/m² | - |
| 1777786336 | 13.89° C | 73% | 1015.3 hPa | 0 mm | - | 62 W/m² | - |
| 1777785736 | 13.89° C | 73% | 1015.1 hPa | 0 mm | - | 56 W/m² | - |
* Rain latest hour (hover to see other rain measurements)
** Current wind speed in m/s (hover to see current wind gust speed)